KLM11A EHAM-CYVR

Flight info

Callsign KLM11A
Flight time N/A
Altitude 35000
Route ANDIK2N ANDIK Z733 KONOM DCT SUTEB/N0489F320 DCT KARLI DCT ALLOY DCT IPTON/M084F320 DCT 65N020W/M084F340 65N030W 66N040W 67N050W DCT EPMAN/N0489F340 DCT YZS/N0486F360 DCT YMM DCT YZU/N0472F380 DCT NADPI DCT MERYT DCT BOOTH VITEV5
Aircraft B77W/H-SDE1E2E3FGHIJ2J3J4J5M1RWXY/LB1D1

Departure

Time N/A
Airport Amsterdam Airport Schiphol (EHAM)

Arrival

Time 2026-04-30 19:45
Airport Vancouver International Airport (CYVR)
Time Latitude Longitude Altitude Speed Heading
2026-04-30 13:52 65.90896 -38.67651 34944 ft 441 kts 279°
2026-04-30 13:52 65.91435 -38.75033 34963 ft 441 kts 279°
2026-04-30 13:52 65.92488 -38.89804 34997 ft 437 kts 279°
2026-04-30 13:53 65.93710 -39.04231 34963 ft 431 kts 282°
2026-04-30 13:53 65.95154 -39.18472 35049 ft 428 kts 287°
2026-04-30 13:54 65.95960 -39.25449 34965 ft 423 kts 275°
2026-04-30 13:54 65.96033 -39.32644 34983 ft 426 kts 268°
2026-04-30 13:54 65.96306 -39.47243 34986 ft 433 kts 278°
2026-04-30 13:55 65.97399 -39.61902 35029 ft 440 kts 279°
2026-04-30 13:55 65.98485 -39.76678 35028 ft 446 kts 278°
2026-04-30 13:56 65.99476 -39.91774 35017 ft 450 kts 278°
2026-04-30 13:56 66.00855 -40.06806 35035 ft 454 kts 287°
2026-04-30 13:57 66.02884 -40.21483 35044 ft 453 kts 287°
2026-04-30 13:57 66.04891 -40.36163 35033 ft 451 kts 287°
2026-04-30 13:58 66.07825 -40.58073 35027 ft 447 kts 286°
2026-04-30 13:59 66.09743 -40.72610 35022 ft 445 kts 286°
2026-04-30 13:59 66.11638 -40.87098 35033 ft 443 kts 286°
2026-04-30 14:00 66.13517 -41.01589 35029 ft 443 kts 286°
2026-04-30 14:00 66.16313 -41.23387 35032 ft 445 kts 286°
2026-04-30 14:01 66.18168 -41.38007 35026 ft 446 kts 285°
2026-04-30 14:01 66.20014 -41.52687 35023 ft 447 kts 285°
2026-04-30 14:02 66.21852 -41.67436 35023 ft 448 kts 285°
2026-04-30 14:02 66.23667 -41.82125 34999 ft 449 kts 285°
2026-04-30 14:03 66.25490 -41.97025 35007 ft 448 kts 285°
2026-04-30 14:03 66.27274 -42.11736 35014 ft 448 kts 285°
2026-04-30 14:04 66.29056 -42.26574 35014 ft 448 kts 285°
2026-04-30 14:04 66.30825 -42.41437 35013 ft 448 kts 285°
2026-04-30 14:05 66.32578 -42.56310 35003 ft 448 kts 285°
2026-04-30 14:05 66.34317 -42.71202 35005 ft 448 kts 285°
2026-04-30 14:06 66.36898 -42.93573 35006 ft 448 kts 284°
2026-04-30 14:07 66.39448 -43.16003 35015 ft 449 kts 284°
2026-04-30 14:08 66.41969 -43.38507 35024 ft 449 kts 284°
2026-04-30 14:08 66.44458 -43.61056 35015 ft 448 kts 284°
2026-04-30 14:09 66.46096 -43.76091 35038 ft 448 kts 284°
2026-04-30 14:10 66.48522 -43.98639 35054 ft 447 kts 284°
2026-04-30 14:10 66.50123 -44.13703 35041 ft 447 kts 284°
2026-04-30 14:11 66.51709 -44.28787 35046 ft 447 kts 284°
2026-04-30 14:11 66.53279 -44.43885 35047 ft 447 kts 283°
2026-04-30 14:12 66.54826 -44.58911 35040 ft 448 kts 283°
2026-04-30 14:12 66.56368 -44.74044 35048 ft 447 kts 283°
2026-04-30 14:13 66.57896 -44.89211 35050 ft 448 kts 283°
2026-04-30 14:13 66.59410 -45.04396 35057 ft 448 kts 283°
2026-04-30 14:14 66.60912 -45.19629 35030 ft 448 kts 283°
2026-04-30 14:14 66.62395 -45.34838 35028 ft 447 kts 283°
2026-04-30 14:15 66.63862 -45.50052 35032 ft 446 kts 283°
2026-04-30 14:15 66.65311 -45.65251 35036 ft 446 kts 283°
2026-04-30 14:16 66.66745 -45.80459 35032 ft 446 kts 282°
2026-04-30 14:16 66.68162 -45.95665 35051 ft 446 kts 282°
2026-04-30 14:17 66.69568 -46.10930 35030 ft 446 kts 282°
2026-04-30 14:17 66.70949 -46.26096 35023 ft 446 kts 282°
2026-04-30 14:18 66.72327 -46.41403 35025 ft 447 kts 282°
2026-04-30 14:18 66.74366 -46.64402 35016 ft 447 kts 282°
2026-04-30 14:19 66.76372 -46.87447 34980 ft 447 kts 282°
2026-04-30 14:20 66.77689 -47.02812 35016 ft 446 kts 282°
2026-04-30 14:20 66.79634 -47.25860 35029 ft 445 kts 281°
2026-04-30 14:21 66.80910 -47.41218 35062 ft 445 kts 281°
2026-04-30 14:22 66.82795 -47.64277 35061 ft 445 kts 281°
2026-04-30 14:22 66.84645 -47.87354 35098 ft 445 kts 281°
2026-04-30 14:23 66.87062 -48.18214 35119 ft 445 kts 281°
2026-04-30 14:24 66.88829 -48.41320 35117 ft 446 kts 280°
2026-04-30 14:25 66.91145 -48.72333 35082 ft 445 kts 280°
2026-04-30 14:26 66.92838 -48.95580 35075 ft 445 kts 280°
2026-04-30 14:27 66.94312 -49.16234 35060 ft 445 kts 279°
2026-04-30 14:27 66.95401 -49.31750 35040 ft 444 kts 279°
2026-04-30 14:28 66.97006 -49.55054 35026 ft 444 kts 279°
2026-04-30 14:28 66.98058 -49.70607 35027 ft 445 kts 279°
2026-04-30 14:29 66.99485 -50.01922 35004 ft 444 kts 269°
2026-04-30 14:31 66.97277 -50.40969 35000 ft 444 kts 261°
2026-04-30 14:31 66.95651 -50.64262 34964 ft 444 kts 261°
2026-04-30 14:32 66.94017 -50.87535 34979 ft 444 kts 261°
2026-04-30 14:33 66.92917 -51.02946 34962 ft 445 kts 261°
2026-04-30 14:33 66.91229 -51.26177 34985 ft 444 kts 261°
2026-04-30 14:34 66.90084 -51.41649 34978 ft 445 kts 260°
2026-04-30 14:34 66.88923 -51.57112 34974 ft 444 kts 260°
2026-04-30 14:35 66.87155 -51.80262 34971 ft 444 kts 260°
2026-04-30 14:36 66.85959 -51.95665 34990 ft 444 kts 259°
2026-04-30 14:36 66.84748 -52.11050 34987 ft 444 kts 259°
2026-04-30 14:37 66.83529 -52.26326 34995 ft 444 kts 259°
2026-04-30 14:37 66.82288 -52.41688 34989 ft 444 kts 259°
2026-04-30 14:38 66.81031 -52.57036 34999 ft 444 kts 259°
2026-04-30 14:38 66.79760 -52.72374 34983 ft 445 kts 259°
2026-04-30 14:39 66.78471 -52.87716 34978 ft 445 kts 259°
2026-04-30 14:39 66.77169 -53.03034 34984 ft 445 kts 259°
2026-04-30 14:40 66.75185 -53.26000 34983 ft 445 kts 258°
2026-04-30 14:40 66.73846 -53.41275 34989 ft 445 kts 258°
2026-04-30 14:41 66.72490 -53.56554 34984 ft 445 kts 258°
2026-04-30 14:41 66.71120 -53.71806 34979 ft 445 kts 258°
2026-04-30 14:42 66.69736 -53.87031 34988 ft 444 kts 258°
2026-04-30 14:42 66.68339 -54.02223 35009 ft 445 kts 257°
2026-04-30 14:43 66.66934 -54.17329 34997 ft 445 kts 257°
2026-04-30 14:43 66.65505 -54.32523 35008 ft 445 kts 257°
2026-04-30 14:44 66.64059 -54.47711 34993 ft 446 kts 257°
2026-04-30 14:44 66.62599 -54.62886 34998 ft 446 kts 257°
2026-04-30 14:45 66.61124 -54.78047 34979 ft 446 kts 257°
2026-04-30 14:45 66.59634 -54.93185 34997 ft 446 kts 257°
2026-04-30 14:46 66.58130 -55.08301 35002 ft 446 kts 256°
2026-04-30 14:46 66.56611 -55.23413 35011 ft 446 kts 256°
2026-04-30 14:47 66.55077 -55.38506 35024 ft 446 kts 256°
2026-04-30 14:47 66.53526 -55.53600 35014 ft 447 kts 256°
2026-04-30 14:48 66.51961 -55.68669 35021 ft 446 kts 256°
2026-04-30 14:48 66.50382 -55.83723 35012 ft 446 kts 256°
2026-04-30 14:49 66.48790 -55.98738 35014 ft 446 kts 256°
2026-04-30 14:49 66.47185 -56.13725 35021 ft 446 kts 255°
2026-04-30 14:50 66.44750 -56.36172 35029 ft 446 kts 255°
2026-04-30 14:51 66.42294 -56.58476 35028 ft 446 kts 255°
2026-04-30 14:52 66.39790 -56.80874 35049 ft 447 kts 255°
2026-04-30 14:52 66.37253 -57.03238 35021 ft 447 kts 255°
2026-04-30 14:53 66.34687 -57.25532 35046 ft 446 kts 254°
2026-04-30 14:54 66.31219 -57.55171 35044 ft 446 kts 254°
2026-04-30 14:55 66.28580 -57.77349 35055 ft 446 kts 254°
2026-04-30 14:56 66.25010 -58.06863 35041 ft 447 kts 253°
2026-04-30 14:57 66.22296 -58.28942 35064 ft 446 kts 253°
2026-04-30 14:58 66.18632 -58.58285 35063 ft 446 kts 253°
2026-04-30 14:58 66.15860 -58.80143 35066 ft 446 kts 253°
2026-04-30 15:00 66.11148 -59.16644 35048 ft 446 kts 252°
2026-04-30 15:01 66.07319 -59.45730 35073 ft 446 kts 252°
2026-04-30 15:01 66.04410 -59.67507 35068 ft 446 kts 252°
2026-04-30 15:02 66.02457 -59.81989 35078 ft 446 kts 251°
2026-04-30 15:03 66.00243 -60.04028 35081 ft 446 kts 262°
2026-04-30 15:03 65.99907 -60.19236 35080 ft 446 kts 268°
2026-04-30 15:04 65.99890 -60.57401 35079 ft 448 kts 268°
2026-04-30 15:06 65.99724 -60.95686 35076 ft 449 kts 268°
2026-04-30 15:07 65.99517 -61.26341 35076 ft 449 kts 267°
2026-04-30 15:08 65.99250 -61.56987 35089 ft 449 kts 267°
2026-04-30 15:09 65.98832 -61.95162 35068 ft 448 kts 266°
2026-04-30 15:10 65.98429 -62.25724 35073 ft 448 kts 266°
2026-04-30 15:11 65.97710 -62.71604 35065 ft 449 kts 266°
2026-04-30 15:13 65.97006 -63.09876 35076 ft 449 kts 265°
2026-04-30 15:14 65.95861 -63.63354 35057 ft 450 kts 265°
2026-04-30 15:17 65.94117 -64.32021 35057 ft 448 kts 264°
2026-04-30 15:19 65.92308 -64.93026 35057 ft 449 kts 264°
2026-04-30 17:39 59.74119 -103.34780 36190 ft 492 kts 243°
2026-04-30 17:42 59.54994 -103.91335 36194 ft 491 kts 244°
2026-04-30 17:43 59.45210 -104.19289 36161 ft 498 kts 243°
2026-04-30 17:44 59.33409 -104.52888 36140 ft 498 kts 243°
2026-04-30 17:47 59.15638 -105.02646 36119 ft 495 kts 243°
2026-04-30 17:48 59.01723 -105.40891 36111 ft 495 kts 242°
2026-04-30 17:50 58.85746 -105.84052 36117 ft 493 kts 242°
2026-04-30 17:52 58.73673 -106.16147 36121 ft 492 kts 241°
2026-04-30 17:53 58.63553 -106.42726 36835 ft 491 kts 240°
2026-04-30 17:54 58.55510 -106.63626 37801 ft 487 kts 240°
2026-04-30 17:55 58.47407 -106.84519 38110 ft 491 kts 239°
2026-04-30 17:56 58.39221 -107.05427 38101 ft 491 kts 239°
2026-04-30 17:58 58.26902 -107.36549 38109 ft 490 kts 239°
2026-04-30 18:00 58.10463 -107.77457 38126 ft 485 kts 239°
2026-04-30 18:01 58.00867 -108.01016 38135 ft 486 kts 238°
2026-04-30 18:02 57.88396 -108.31293 38125 ft 490 kts 238°
2026-04-30 18:04 57.75807 -108.61461 38119 ft 490 kts 238°
2026-04-30 18:06 57.58946 -109.01281 38059 ft 487 kts 237°
2026-04-30 18:08 57.44185 -109.35608 38084 ft 485 kts 237°
2026-04-30 18:10 57.27248 -109.74394 38071 ft 484 kts 237°
2026-04-30 18:11 57.12321 -110.08059 38083 ft 484 kts 236°
2026-04-30 18:13 57.01603 -110.31946 38090 ft 485 kts 236°
2026-04-30 18:14 56.90846 -110.55676 38090 ft 484 kts 236°
2026-04-30 18:15 56.77886 -110.83964 38097 ft 484 kts 236°
2026-04-30 18:16 56.69249 -111.02635 38095 ft 483 kts 236°
2026-04-30 18:17 56.64905 -111.11974 38091 ft 484 kts 236°
2026-04-30 18:18 56.58231 -111.25812 38093 ft 487 kts 234°
2026-04-30 18:18 56.53722 -111.34987 38071 ft 487 kts 234°
2026-04-30 18:19 56.49220 -111.44149 38091 ft 487 kts 234°
2026-04-30 18:19 56.44716 -111.53309 38102 ft 487 kts 234°
2026-04-30 18:20 56.40205 -111.62454 38105 ft 488 kts 234°
2026-04-30 18:20 56.35689 -111.71573 38107 ft 487 kts 234°
2026-04-30 18:21 56.31168 -111.80664 38109 ft 486 kts 233°
2026-04-30 18:21 56.26652 -111.89711 38104 ft 486 kts 233°
2026-04-30 18:22 56.22125 -111.98746 38112 ft 486 kts 233°
2026-04-30 18:22 56.15317 -112.12271 38115 ft 487 kts 233°
2026-04-30 18:23 56.10766 -112.21267 38097 ft 487 kts 233°
2026-04-30 18:23 56.06208 -112.30243 38108 ft 487 kts 233°
2026-04-30 18:24 55.99381 -112.43623 38106 ft 488 kts 232°
2026-04-30 18:25 55.94796 -112.52571 38095 ft 489 kts 232°
2026-04-30 18:25 55.87902 -112.65954 38101 ft 489 kts 232°
2026-04-30 18:26 55.80990 -112.79298 38101 ft 489 kts 232°
2026-04-30 18:27 55.74063 -112.92596 38098 ft 489 kts 232°
2026-04-30 18:28 55.67117 -113.05859 38103 ft 489 kts 232°
2026-04-30 18:28 55.60148 -113.19088 38111 ft 490 kts 231°
2026-04-30 18:29 55.50860 -113.36607 38113 ft 490 kts 231°
2026-04-30 18:30 55.41519 -113.54102 38120 ft 489 kts 232°
2026-04-30 18:31 55.34515 -113.67153 38132 ft 489 kts 231°
2026-04-30 18:32 55.27476 -113.80132 38129 ft 489 kts 231°
2026-04-30 18:33 55.20440 -113.93082 38147 ft 489 kts 230°
2026-04-30 18:33 55.13393 -114.05981 38133 ft 489 kts 230°
2026-04-30 18:34 55.06355 -114.18788 38150 ft 489 kts 230°
2026-04-30 18:35 55.01649 -114.27314 38144 ft 488 kts 230°
2026-04-30 18:35 54.96959 -114.35779 38135 ft 488 kts 230°
2026-04-30 18:36 54.89884 -114.48490 38143 ft 487 kts 230°
2026-04-30 18:37 54.82800 -114.61153 38104 ft 488 kts 229°
2026-04-30 18:37 54.78062 -114.69585 38126 ft 488 kts 229°
2026-04-30 18:38 54.73317 -114.77996 38131 ft 488 kts 229°
2026-04-30 18:38 54.68564 -114.86393 38127 ft 489 kts 229°
2026-04-30 18:39 54.63803 -114.94775 38133 ft 489 kts 229°
2026-04-30 18:39 54.59038 -115.03132 38127 ft 488 kts 229°
2026-04-30 18:40 54.54280 -115.11449 38126 ft 487 kts 229°
2026-04-30 18:40 54.49524 -115.19734 38138 ft 486 kts 229°
2026-04-30 18:41 54.44772 -115.27982 38143 ft 485 kts 228°
2026-04-30 18:41 54.40017 -115.36206 38142 ft 485 kts 228°
2026-04-30 18:42 54.35260 -115.44408 38129 ft 485 kts 228°
2026-04-30 18:42 54.28141 -115.56626 38136 ft 485 kts 228°
2026-04-30 18:45 54.00661 -115.89155 38155 ft 492 kts 202°
2026-04-30 18:45 53.97466 -115.91278 38156 ft 493 kts 203°
2026-04-30 18:46 53.91074 -115.95484 38168 ft 493 kts 203°
2026-04-30 18:46 53.84673 -115.99696 38156 ft 494 kts 203°
2026-04-30 18:47 53.78278 -116.03924 38174 ft 493 kts 203°
2026-04-30 18:47 53.71884 -116.08151 38182 ft 493 kts 203°
2026-04-30 18:48 53.65496 -116.12360 38179 ft 494 kts 202°
2026-04-30 18:48 53.59088 -116.16567 38178 ft 494 kts 202°
2026-04-30 18:49 53.52677 -116.20762 38189 ft 495 kts 202°
2026-04-30 18:49 53.46254 -116.24950 38167 ft 496 kts 202°
2026-04-30 18:50 53.39862 -116.29104 38193 ft 496 kts 202°
2026-04-30 18:50 53.33424 -116.33276 38193 ft 497 kts 202°
2026-04-30 18:51 53.26966 -116.37446 38194 ft 498 kts 202°
2026-04-30 18:51 53.20504 -116.41604 38196 ft 498 kts 202°
2026-04-30 18:52 53.14030 -116.45758 38191 ft 498 kts 202°
2026-04-30 18:52 53.07565 -116.49892 38193 ft 498 kts 202°
2026-04-30 18:53 53.01105 -116.54010 38205 ft 497 kts 202°
2026-04-30 18:53 52.95742 -116.57418 38200 ft 496 kts 202°
2026-04-30 18:54 52.89297 -116.61502 38213 ft 496 kts 202°
2026-04-30 18:54 52.82856 -116.65572 38194 ft 495 kts 202°
2026-04-30 18:55 52.76429 -116.69619 38223 ft 494 kts 202°
2026-04-30 18:55 52.66804 -116.75656 38231 ft 493 kts 202°
2026-04-30 18:56 52.57172 -116.81669 38273 ft 494 kts 202°
2026-04-30 18:57 52.47525 -116.87665 38301 ft 494 kts 202°
2026-04-30 18:57 52.41086 -116.91648 38293 ft 495 kts 202°
2026-04-30 18:58 52.31565 -116.97768 38333 ft 493 kts 201°
2026-04-30 18:59 52.21860 -117.03491 38341 ft 496 kts 201°
2026-04-30 19:00 52.08908 -117.11368 38330 ft 497 kts 201°
2026-04-30 19:01 51.95936 -117.19254 38338 ft 498 kts 202°
2026-04-30 19:02 51.86238 -117.25146 38329 ft 496 kts 200°
2026-04-30 19:03 51.73474 -117.33301 38305 ft 491 kts 212°
2026-04-30 19:03 51.68320 -117.40340 38290 ft 486 kts 234°
2026-04-30 19:04 51.64462 -117.49172 38321 ft 483 kts 237°
2026-04-30 19:05 51.56408 -117.66658 38320 ft 489 kts 236°
2026-04-30 19:06 51.48290 -117.84149 38309 ft 491 kts 236°
2026-04-30 19:06 51.42174 -117.97281 38310 ft 488 kts 235°
2026-04-30 19:07 51.36162 -118.10331 38307 ft 482 kts 235°
2026-04-30 19:08 51.28047 -118.27351 38269 ft 480 kts 235°
2026-04-30 19:09 51.22014 -118.40065 38264 ft 478 kts 236°
2026-04-30 19:09 51.18011 -118.48556 38304 ft 481 kts 235°
2026-04-30 19:10 51.09804 -118.65646 38245 ft 488 kts 234°
2026-04-30 19:11 51.03634 -118.78463 38244 ft 485 kts 235°
2026-04-30 19:12 50.99539 -118.86944 38278 ft 483 kts 234°
2026-04-30 19:12 50.95453 -118.95379 38252 ft 481 kts 234°
2026-04-30 19:13 50.87320 -119.12083 38238 ft 479 kts 234°
2026-04-30 19:14 50.83289 -119.20466 38244 ft 478 kts 234°
2026-04-30 19:14 50.79190 -119.28750 38263 ft 479 kts 234°
2026-04-30 19:15 50.75096 -119.37037 38248 ft 477 kts 234°
2026-04-30 19:15 50.68948 -119.49398 38248 ft 477 kts 234°
2026-04-30 19:16 50.64856 -119.57645 38246 ft 478 kts 234°
2026-04-30 19:17 50.58857 -119.70135 38235 ft 474 kts 234°
2026-04-30 19:17 50.52512 -119.82112 38249 ft 476 kts 233°
2026-04-30 19:18 50.46389 -119.94448 38240 ft 479 kts 234°
2026-04-30 19:19 50.42281 -120.02691 38225 ft 480 kts 233°
2026-04-30 19:19 50.36128 -120.14960 38236 ft 475 kts 233°
2026-04-30 19:20 50.32019 -120.22966 38232 ft 474 kts 233°
2026-04-30 19:21 50.25828 -120.35023 38218 ft 473 kts 233°
2026-04-30 19:22 50.17624 -120.50911 38238 ft 467 kts 233°
2026-04-30 19:23 50.05500 -120.74573 38213 ft 462 kts 233°
2026-04-30 19:24 50.01450 -120.82200 37455 ft 453 kts 232°
2026-04-30 19:24 49.99432 -120.86000 36463 ft 460 kts 233°
2026-04-30 19:24 49.95353 -120.93927 34312 ft 479 kts 234°
2026-04-30 19:25 49.89993 -121.07193 31291 ft 486 kts 241°
2026-04-30 19:26 49.86552 -121.16311 29409 ft 489 kts 238°
2026-04-30 19:26 49.83113 -121.25181 28386 ft 472 kts 238°
2026-04-30 19:26 49.81441 -121.29517 27861 ft 466 kts 238°
2026-04-30 19:27 49.78147 -121.38046 26662 ft 457 kts 238°
2026-04-30 19:27 49.74911 -121.46412 25541 ft 449 kts 238°
2026-04-30 19:28 49.73310 -121.50539 24989 ft 446 kts 238°
2026-04-30 19:28 49.70170 -121.58634 23945 ft 438 kts 237°
2026-04-30 19:29 49.67062 -121.66640 22823 ft 430 kts 237°
2026-04-30 19:29 49.65529 -121.70582 22250 ft 427 kts 237°
2026-04-30 19:30 49.60972 -121.82210 20613 ft 417 kts 236°
2026-04-30 19:30 49.58000 -121.89785 19647 ft 409 kts 236°
2026-04-30 19:31 49.55072 -121.97230 18675 ft 403 kts 236°
2026-04-30 19:31 49.53621 -122.00906 18161 ft 400 kts 236°
2026-04-30 19:31 49.50747 -122.08152 17233 ft 393 kts 236°
2026-04-30 19:32 49.49333 -122.11706 16885 ft 384 kts 237°
2026-04-30 19:32 49.47986 -122.15157 16801 ft 369 kts 236°
2026-04-30 19:32 49.46672 -122.18452 16729 ft 355 kts 236°
2026-04-30 19:32 49.45399 -122.21617 16671 ft 342 kts 236°
2026-04-30 19:33 49.44174 -122.24688 16585 ft 331 kts 236°
2026-04-30 19:33 49.42993 -122.27662 16514 ft 321 kts 236°
2026-04-30 19:33 49.41852 -122.30538 16445 ft 310 kts 236°
2026-04-30 19:33 49.40749 -122.33317 16365 ft 299 kts 236°
2026-04-30 19:34 49.39642 -122.35891 16050 ft 280 kts 228°
2026-04-30 19:34 49.38394 -122.38082 15470 ft 274 kts 225°
2026-04-30 19:34 49.35877 -122.42427 14200 ft 269 kts 225°
2026-04-30 19:35 49.34614 -122.44521 13525 ft 266 kts 224°
2026-04-30 19:35 49.33358 -122.46593 12820 ft 264 kts 226°
2026-04-30 19:35 49.32122 -122.48673 12143 ft 263 kts 226°
2026-04-30 19:35 49.30889 -122.50736 11493 ft 262 kts 226°
2026-04-30 19:36 49.29670 -122.52795 10868 ft 260 kts 226°
2026-04-30 19:36 49.28464 -122.54844 10228 ft 259 kts 226°
2026-04-30 19:36 49.26082 -122.58914 8953 ft 254 kts 227°
2026-04-30 19:37 49.24909 -122.60918 8332 ft 251 kts 227°
2026-04-30 19:37 49.23760 -122.62923 7704 ft 250 kts 227°
2026-04-30 19:37 49.22596 -122.64878 7111 ft 248 kts 226°
2026-04-30 19:37 49.21465 -122.66795 6755 ft 239 kts 228°
2026-04-30 19:38 49.20333 -122.68706 6457 ft 247 kts 224°
2026-04-30 19:38 49.19096 -122.70572 6109 ft 252 kts 223°
2026-04-30 19:38 49.17828 -122.72439 5774 ft 253 kts 224°
2026-04-30 19:38 49.16612 -122.74339 5551 ft 245 kts 229°
2026-04-30 19:39 49.15874 -122.76655 5120 ft 247 kts 261°
2026-04-30 19:39 49.15758 -122.79264 4727 ft 246 kts 265°
2026-04-30 19:39 49.15908 -122.81870 4294 ft 249 kts 282°
2026-04-30 19:39 49.16364 -122.84427 4012 ft 245 kts 284°
2026-04-30 19:40 49.16627 -122.86045 3883 ft 232 kts 282°
2026-04-30 19:40 49.17010 -122.89145 3491 ft 212 kts 279°
2026-04-30 19:40 49.17244 -122.91289 3279 ft 205 kts 279°
2026-04-30 19:40 49.17405 -122.92721 3078 ft 206 kts 279°
2026-04-30 19:41 49.17730 -122.95587 2711 ft 204 kts 280°
2026-04-30 19:41 49.17964 -122.97637 2415 ft 187 kts 280°
2026-04-30 19:41 49.18173 -122.99473 2178 ft 164 kts 280°
2026-04-30 19:41 49.18357 -123.01080 1964 ft 146 kts 280°
2026-04-30 19:42 49.18471 -123.02082 1858 ft 144 kts 279°
2026-04-30 19:42 49.18697 -123.04079 1612 ft 144 kts 279°
2026-04-30 19:42 49.18868 -123.05579 1411 ft 143 kts 279°
2026-04-30 19:42 49.19036 -123.07055 1215 ft 139 kts 279°
2026-04-30 19:43 49.19202 -123.08511 1032 ft 140 kts 279°
2026-04-30 19:43 49.19367 -123.09978 830 ft 139 kts 278°
2026-04-30 19:43 49.19534 -123.11410 649 ft 136 kts 283°
2026-04-30 19:44 49.19798 -123.13747 322 ft 132 kts 287°
2026-04-30 19:44 49.19978 -123.15110 220 ft 132 kts 276°
2026-04-30 19:44 49.20101 -123.16448 29 ft 123 kts 279°
2026-04-30 19:44 49.20228 -123.17565 27 ft 86 kts 279°
2026-04-30 19:45 49.20303 -123.18232 29 ft 41 kts 277°
2026-04-30 19:45 49.20298 -123.18437 29 ft 2 kts 260°
2026-04-30 19:45 49.20291 -123.18485 29 ft 8 kts 257°
2026-04-30 19:45 49.20268 -123.18605 29 ft 15 kts 251°
2026-04-30 19:46 49.20222 -123.18787 28 ft 15 kts 249°
2026-04-30 19:46 49.20217 -123.18809 28 ft 0 kts 249°
2026-04-30 19:46 49.20213 -123.18824 28 ft 3 kts 249°
2026-04-30 19:46 49.20201 -123.18868 28 ft 6 kts 243°
2026-04-30 19:47 49.20165 -123.18888 28 ft 6 kts 153°
2026-04-30 19:47 49.20156 -123.18843 28 ft 7 kts 96°
2026-04-30 19:47 49.20145 -123.18711 28 ft 11 kts 98°
2026-04-30 19:47 49.20130 -123.18581 28 ft 14 kts 103°
2026-04-30 19:48 49.20062 -123.18478 28 ft 15 kts 127°
2026-04-30 19:48 49.20028 -123.18315 28 ft 17 kts 100°
2026-04-30 19:48 49.20006 -123.18121 28 ft 20 kts 99°
2026-04-30 19:48 49.19979 -123.17905 28 ft 22 kts 111°
2026-04-30 19:49 49.19928 -123.17686 28 ft 17 kts 99°
2026-04-30 19:49 49.19833 -123.17574 28 ft 0 kts 157°
2026-04-30 19:49 49.19828 -123.17570 28 ft 0 kts 157°
2026-04-30 19:51 49.19828 -123.17571 28 ft 0 kts 157°
2026-04-30 19:56 49.19695 -123.17906 28 ft 0 kts 49°
2026-04-30 19:56 49.19693 -123.17909 27 ft 0 kts 49°
2026-04-30 19:57 49.19683 -123.17926 28 ft 0 kts 49°
2026-04-30 19:57 49.19683 -123.17928 27 ft 0 kts 49°
2026-04-30 20:03 49.19682 -123.17928 28 ft 0 kts 49°
2026-04-30 20:05 49.19682 -123.17929 28 ft 0 kts 49°